Kosmos-1729

unknown
NORAD ID: 16527 Int'l Des: 1986-011 Owner: PVO Country: SU
MEOELLIPTICALHEO_ELLIPTICALSEMI_SYNC

关于 Kosmos-1729

正在加载描述...

实时位置

正在加载3D地球...

即将过境

高度历史

Altitude vs Time

uPlot chart will show altitude changes over time

两行轨道根数

1 16527U 86011A 26059.88386631 .00000007 00000-0 00000+0 0 9998
2 16527 70.8554 192.6597 4480986 42.6933 342.9773 2.00449430293574
Epoch: Feb 28, 2026 • Age: 98 hours

当前状态

高度 30126.3 km
速度 2.62 km/s
星下点 -20.35°S, 172.17°W
发射日期 Feb 1, 1986
运行时间 40 years
类型 other

技术详情

分类 Payload
质量 1250.00 kg
干质量 1150.00 kg
总质量 1250.00 kg
长度 4.00 m
直径 2.00 m
跨度 5.00 m
形状 Cyl + 2 Pan
制造商 NPOL/KOMET
平台类型 Oko
阶段状态 In Orbit
所有者/国家 PVO/SU

大型星座

Loading constellations...